Temp
-2 -2 -2 -2 -2 -2 -2 -2 -3 -3 -3 -3 -3 -3 -3 -3 -3 -3 -4 -4 -4 -4 -4 -4 -5 -5 -5 -5 -5 -5 -4 -5 -5 -6 -7 -7 -7 -6 -7 -7 -6 -6 -7 -7 -6
-2 -2 -2 -2 -2 -2 -2 -3 -3 -3 -3 -3 -3 -3 -3 -3 -3 -3 -3 -4 -4 -4 -4 -4 -5 -5 -5 -5 -5 -5 -5 -5 -5 -4 -5 -6 -6 -7 -7 -7 -7 -7 -7 -7 -8
-2 -2 -2 -2 -2 -2 -2 -3 -3 -3 -3 -3 -3 -3 -3 -3 -3 -3 -3 -4 -4 -4 -4 -4 -4 -5 -5 -5 -5 -5 -5 -5 -5 -5 -4 -5 -5 -5 -6 -6 -7 -7 -7 -8 -8
-2 -2 -2 -2 -2 -2 -3 -3 -3 -3 -3 -3 -3 -3 -3 -3 -3 -4 -4 -4 -4 -4 -4 -5 -5 -5 -5 -5 -5 -5 -5 -5 -5 -5 -5 -5 -5 -5 -5 -5 -6 -7 -7 -8 -8
-2 -2 -2 -2 -2 -3 -3 -3 -3 -3 -3 -3 -3 -3 -3 -3 -4 -4 -4 -4 -4 -4 -4 -5 -5 -5 -5 -5 -5 -5 -5 -5 -5 -5 -5 -5 -5 -5 -5 -5 -6 -6 -8 -8 -8
-2 -2 -2 -2 -2 -3 -3 -3 -3 -3 -3 -3 -3 -3 -3 -4 -4 -4 -4 -4 -4 -4 -5 -5 -5 -5 -5 -5 -5 -5 -5 -5 -5 -5 -5 -5 -5 -5 -5 -5 -6 -7 -8 -8 -8
-2 -2 -2 -2 -2 -3 -3 -3 -4 -4 -4 -4 -4 -4 -4 -4 -4 -4 -4 -4 -4 -5 -5 -5 -5 -5 -5 -5 -5 -5 -6 -6 -5 -5 -5 -5 -5 -5 -5 -5 -6 -7 -7 -8 -8
-2 -2 -2 -2 -3 -3 -3 -4 -4 -4 -4 -4 -4 -4 -4 -4 -4 -4 -4 -4 -5 -5 -5 -5 -5 -5 -5 -5 -5 -6 -6 -6 -5 -5 -5 -5 -6 -5 -6 -6 -6 -7 -8 -8 -8
-2 -2 -2 -2 -3 -3 -3 -4 -4 -4 -4 -4 -4 -4 -4 -4 -4 -4 -4 -4 -5 -5 -5 -5 -5 -5 -5 -5 -6 -6 -6 -6 -5 -5 -5 -6 -6 -6 -6 -6 -6 -7 -8 -8 -8
-3 -2 -2 -3 -3 -3 -3 -4 -4 -4 -4 -4 -4 -4 -4 -4 -4 -4 -4 -4 -5 -5 -5 -6 -6 -6 -6 -6 -6 -6 -6 -6 -6 -6 -6 -6 -6 -6 -6 -6 -7 -7 -7 -7 -8
-3 -3 -3 -3 -3 -3 -3 -4 -4 -4 -4 -4 -4 -4 -4 -4 -4 -4 -4 -4 -5 -5 -6 -6 -6 -6 -6 -6 -6 -6 -6 -6 -6 -6 -6 -6 -6 -6 -6 -6 -6 -7 -7 -7 -7
-3 -3 -3 -3 -3 -3 -4 -4 -4 -4 -4 -4 -4 -4 -4 -4 -4 -4 -4 -4 -5 -6 -6 -6 -6 -6 -6 -6 -6 -6 -6 -6 -6 -6 -6 -6 -7 -7 -7 -7 -6 -7 -7 -7 -7
-3 -3 -3 -3 -3 -4 -4 -4 -4 -4 -5 -5 -5 -4 -4 -4 -4 -4 -4 -5 -5 -6 -6 -6 -6 -6 -6 -6 -6 -6 -6 -6 -7 -7 -7 -7 -7 -7 -7 -7 -7 -7 -7 -6 -7
-4 -3 -3 -3 -4 -4 -4 -4 -5 -5 -4 -5 -5 -5 -5 -4 -4 -5 -5 -5 -5 -6 -6 -6 -6 -6 -6 -6 -6 -7 -6 -6 -7 -7 -9 -7 -8 -7 -7 -7 -7 -7 -7 -7 -7
-4 -4 -4 -4 -4 -4 -5 -5 -5 -5 -5 -5 -5 -5 -5 -5 -5 -5 -5 -6 -6 -6 -6 -6 -6 -6 -6 -6 -6 -6 -7 -7 -7 -7 -7 -9 -7 -9 -8 -7 -7 -7 -7 -7 -8
-5 -4 -4 -4 -4 -5 -5 -5 -5 -6 -6 -5 -5 -6 -6 -6 -6 -6 -6 -6 -6 -7 -6 -6 -7 -7 -6 -6 -7 -7 -7 -7 -7 -7 -8 -9 -7 -9 -9 -8 -7 -7 -8 -8 -8
-5 -5 -5 -5 -5 -5 -5 -6 -6 -6 -6 -6 -6 -6 -6 -6 -6 -6 -7 -7 -7 -7 -7 -7 -7 -7 -7 -7 -7 -8 -8 -9 -9 -9 -9 -8 -8 -8 -8 -8 -8 -8 -8 -8 -8
-6 -5 -5 -5 -5 -5 -6 -6 -6 -6 -6 -6 -6 -7 -7 -7 -7 -7 -7 -7 -7 -7 -8 -8 -7 -7 -7 -7 -7 -7 -8 -8 -8 -10 -10 -9 -7 -9 -8 -8 -8 -9 -9 -9 -9
-6 -6 -6 -6 -6 -6 -6 -6 -6 -6 -6 -7 -7 -7 -7 -7 -7 -7 -7 -7 -7 -7 -8 -8 -8 -8 -8 -8 -8 -8 -8 -8 -8 -8 -7 -9 -9 -8 -8 -8 -9 -9 -9 -10 -10
-6 -6 -6 -6 -7 -7 -7 -6 -6 -6 -7 -7 -7 -7 -7 -7 -7 -7 -7 -7 -7 -7 -7 -7 -8 -7 -7 -8 -8 -8 -8 -8 -9 -8 -9 -10 -9 -10 -8 -9 -9 -10 -10 -10 -10
-7 -7 -7 -7 -7 -7 -7 -7 -6 -7 -7 -7 -7 -7 -7 -7 -7 -7 -7 -7 -7 -7 -7 -7 -7 -8 -7 -7 -7 -7 -7 -7 -8 -8 -8 -9 -11 -9 -9 -9 -10 -10 -10 -10 -10
-7 -7 -7 -7 -7 -7 -7 -7 -7 -7 -7 -7 -7 -7 -7 -7 -7 -7 -7 -7 -7 -7 -7 -7 -7 -7 -8 -7 -7 -7 -8 -8 -8 -9 -8 -8 -7 -8 -9 -9 -9 -9 -9 -9 -9
-8 -8 -8 -7 -7 -7 -7 -7 -7 -7 -7 -7 -7 -7 -7 -8 -8 -8 -8 -8 -8 -8 -8 -7 -7 -7 -8 -7 -6 -7 -7 -8 -8 -8 -8 -8 -8 -10 -9 -8 -8 -9 -9 -9 -10
-8 -8 -8 -8 -8 -8 -8 -8 -7 -7 -7 -7 -8 -8 -8 -8 -8 -8 -8 -8 -8 -8 -8 -8 -8 -8 -8 -9 -8 -8 -8 -8 -8 -8 -8 -8 -8 -9 -9 -9 -9 -9 -9 -10 -10
-9 -8 -9 -8 -9 -8 -8 -8 -8 -8 -8 -8 -8 -8 -8 -8 -8 -8 -8 -8 -8 -8 -8 -8 -8 -8 -8 -9 -8 -8 -8 -9 -9 -9 -9 -9 -9 -9 -9 -9 -10 -10 -10 -10 -11
-9 -9 -9 -9 -9 -9 -9 -9 -9 -8 -9 -8 -8 -8 -9 -9 -9 -9 -9 -9 -9 -8 -8 -8 -9 -8 -8 -9 -9 -9 -9 -9 -9 -10 -9 -9 -10 -9 -10 -10 -10 -10 -10 -11 -11
-10 -10 -10 -9 -9 -9 -9 -9 -9 -9 -9 -9 -9 -9 -9 -9 -9 -9 -9 -9 -9 -9 -9 -9 -9 -9 -9 -9 -9 -9 -9 -9 -10 -10 -10 -10 -11 -10 -10 -10 -11 -11 -11 -11 -12
Height
5918 5918 5918 5918 5917 5917 5916 5916 5916 5916 5917 5918 5918 5918 5918 5918 5919 5918 5918 5918 5918 5918 5918 5917 5916 5916 5916 5915 5914 5914 5914 5914 5914 5914 5913 5912 5910 5909 5908 5906 5905 5903 5903 5902 5899
5918 5918 5918 5918 5917 5917 5916 5916 5917 5917 5918 5919 5919 5919 5919 5919 5919 5919 5920 5919 5918 5918 5918 5918 5917 5917 5917 5916 5916 5915 5915 5914 5914 5913 5914 5912 5910 5909 5908 5907 5906 5905 5905 5903 5902
5917 5917 5917 5917 5916 5917 5917 5917 5918 5918 5919 5919 5919 5919 5920 5920 5920 5920 5920 5920 5919 5919 5918 5918 5918 5918 5918 5917 5916 5916 5916 5916 5915 5913 5912 5912 5911 5908 5906 5907 5906 5907 5906 5904 5902
5916 5916 5916 5916 5916 5916 5917 5917 5918 5918 5919 5919 5919 5919 5920 5920 5921 5920 5920 5920 5920 5919 5919 5919 5918 5918 5918 5918 5917 5917 5915 5915 5914 5913 5912 5911 5910 5909 5907 5906 5905 5907 5906 5905 5904
5915 5916 5916 5915 5916 5916 5916 5917 5917 5918 5918 5918 5919 5919 5919 5920 5920 5919 5919 5919 5919 5919 5919 5919 5918 5917 5917 5917 5917 5915 5915 5914 5913 5912 5911 5911 5910 5909 5908 5906 5905 5905 5905 5905 5905
5914 5914 5914 5915 5915 5915 5915 5916 5917 5917 5917 5918 5918 5918 5919 5920 5919 5919 5919 5919 5919 5918 5918 5918 5917 5917 5916 5916 5915 5915 5914 5913 5912 5911 5910 5909 5907 5908 5907 5906 5905 5905 5904 5905 5905
5912 5912 5913 5913 5914 5913 5914 5915 5915 5916 5916 5917 5917 5917 5918 5919 5918 5918 5918 5918 5917 5917 5917 5917 5916 5916 5915 5914 5913 5913 5912 5911 5910 5909 5909 5908 5907 5907 5906 5905 5905 5905 5904 5903 5903
5910 5911 5911 5911 5912 5912 5913 5913 5914 5914 5915 5915 5916 5916 5916 5917 5917 5917 5917 5916 5916 5916 5916 5915 5915 5914 5914 5913 5912 5910 5910 5909 5908 5907 5908 5908 5905 5906 5905 5904 5903 5904 5903 5902 5901
5908 5909 5909 5909 5909 5910 5910 5911 5912 5913 5913 5914 5914 5914 5915 5915 5915 5915 5915 5914 5914 5913 5913 5913 5913 5912 5912 5911 5910 5909 5909 5907 5907 5906 5905 5905 5904 5903 5902 5902 5901 5900 5900 5901 5900
5904 5906 5906 5906 5907 5907 5908 5909 5910 5911 5911 5912 5912 5914 5913 5913 5913 5913 5912 5911 5911 5910 5910 5910 5910 5909 5909 5908 5908 5906 5906 5905 5903 5903 5903 5902 5901 5901 5900 5899 5898 5897 5896 5896 5895
5901 5902 5903 5904 5904 5904 5905 5906 5908 5909 5909 5909 5909 5910 5910 5910 5910 5910 5909 5908 5907 5907 5907 5907 5907 5907 5906 5906 5905 5904 5903 5902 5900 5899 5898 5898 5897 5897 5896 5896 5894 5894 5892 5892 5892
5898 5899 5900 5901 5901 5901 5902 5902 5902 5905 5905 5905 5906 5906 5907 5907 5907 5906 5906 5905 5903 5903 5903 5904 5904 5903 5903 5902 5901 5900 5901 5900 5898 5897 5897 5896 5895 5894 5894 5894 5892 5891 5889 5888 5889
5893 5895 5896 5896 5897 5898 5898 5899 5899 5899 5900 5901 5902 5902 5903 5903 5903 5902 5902 5901 5900 5900 5900 5900 5900 5899 5898 5898 5897 5897 5897 5896 5896 5895 5894 5894 5893 5892 5891 5889 5888 5885 5883 5884 5884
5888 5890 5891 5892 5895 5894 5894 5894 5895 5896 5897 5897 5898 5898 5899 5899 5899 5898 5897 5898 5897 5897 5896 5896 5895 5894 5894 5894 5895 5894 5894 5893 5893 5893 5896 5892 5896 5888 5887 5886 5883 5882 5880 5880 5879
5883 5884 5886 5887 5888 5889 5890 5890 5891 5892 5893 5894 5893 5893 5894 5895 5895 5894 5894 5894 5894 5894 5894 5893 5892 5891 5890 5890 5891 5890 5890 5890 5889 5889 5890 5888 5890 5889 5885 5883 5881 5878 5879 5877 5875
5877 5878 5880 5882 5883 5884 5884 5885 5887 5890 5888 5890 5889 5889 5890 5890 5890 5890 5891 5891 5891 5890 5890 5890 5888 5888 5887 5887 5887 5887 5886 5885 5885 5886 5887 5885 5885 5887 5882 5878 5876 5875 5872 5871 5870
5871 5872 5874 5876 5877 5878 5879 5881 5883 5883 5885 5885 5885 5885 5885 5886 5886 5886 5886 5887 5888 5887 5886 5886 5885 5885 5884 5883 5883 5882 5882 5885 5886 5886 5886 5877 5877 5878 5874 5872 5870 5869 5867 5866 5864
5864 5866 5867 5868 5870 5872 5874 5876 5876 5878 5878 5880 5880 5880 5880 5881 5881 5882 5882 5883 5884 5883 5882 5882 5881 5881 5880 5879 5878 5878 5878 5878 5876 5877 5878 5869 5871 5869 5867 5865 5864 5863 5861 5859 5857
5856 5858 5860 5861 5863 5865 5867 5868 5869 5870 5872 5874 5874 5875 5876 5876 5877 5877 5877 5877 5878 5879 5879 5878 5876 5875 5874 5873 5874 5870 5873 5872 5869 5867 5866 5866 5863 5861 5860 5858 5856 5854 5852 5850 5849
5847 5850 5852 5854 5856 5858 5860 5860 5862 5864 5865 5867 5868 5870 5870 5871 5871 5871 5871 5872 5871 5873 5873 5873 5872 5870 5869 5869 5868 5866 5864 5865 5862 5862 5860 5861 5854 5854 5849 5848 5847 5845 5843 5841 5839
5838 5841 5844 5846 5848 5851 5852 5854 5855 5857 5859 5861 5861 5863 5863 5864 5865 5865 5864 5864 5865 5865 5865 5865 5866 5862 5864 5862 5861 5859 5859 5860 5858 5856 5853 5852 5853 5843 5843 5839 5837 5836 5832 5830 5828
5829 5832 5835 5837 5841 5842 5844 5846 5848 5849 5851 5853 5854 5855 5855 5857 5858 5857 5857 5855 5857 5857 5857 5857 5857 5857 5855 5853 5853 5853 5852 5851 5849 5848 5844 5841 5842 5838 5834 5831 5829 5829 5825 5823 5818
5820 5823 5826 5829 5831 5833 5835 5837 5839 5841 5843 5844 5845 5847 5849 5849 5851 5850 5849 5849 5848 5848 5848 5847 5848 5849 5848 5846 5845 5845 5845 5844 5841 5838 5837 5835 5836 5827 5823 5818 5817 5816 5814 5812 5809
5811 5814 5816 5819 5821 5824 5826 5828 5830 5831 5833 5835 5837 5839 5840 5841 5843 5842 5842 5842 5841 5840 5840 5840 5841 5841 5843 5840 5838 5836 5836 5835 5832 5830 5828 5825 5824 5820 5816 5811 5809 5806 5804 5801 5798
5799 5803 5806 5809 5812 5814 5817 5820 5821 5822 5825 5826 5828 5830 5832 5832 5833 5834 5834 5834 5834 5833 5833 5834 5834 5833 5832 5830 5828 5828 5829 5826 5823 5820 5818 5817 5813 5811 5806 5802 5800 5796 5793 5790 5787
5788 5792 5796 5799 5802 5805 5807 5810 5812 5814 5816 5817 5818 5820 5822 5823 5824 5823 5826 5826 5825 5824 5824 5826 5825 5824 5824 5820 5818 5818 5818 5816 5814 5811 5809 5806 5802 5797 5795 5792 5790 5786 5783 5780 5777
5777 5780 5784 5789 5791 5794 5796 5800 5802 5804 5806 5808 5810 5811 5811 5812 5814 5815 5815 5815 5815 5816 5816 5817 5817 5815 5816 5812 5808 5809 5809 5806 5803 5801 5799 5796 5793 5788 5785 5781 5779 5776 5772 5769 5766
Wind_Speed
2 1 2 4 5 6 7 8 8 9 11 11 12 12 12 13 13 12 12 12 11 10 10 10 11 12 12 13 13 13 14 13 11 8 4 3 8 7 7 3 7 9 11 14 17
1 1 2 4 5 6 7 7 7 7 8 9 10 11 11 11 11 11 10 10 9 8 8 8 9 9 10 10 10 9 11 12 10 9 8 5 4 7 10 8 6 6 8 11 13
1 1 2 4 5 4 5 6 5 7 6 6 6 8 8 8 7 7 8 7 6 6 6 6 6 6 7 8 8 8 8 8 9 10 9 8 8 9 12 10 9 5 6 6 8
2 1 2 2 3 3 4 4 4 5 3 3 3 3 3 4 4 4 5 4 3 3 3 3 4 4 5 6 7 8 9 8 8 8 9 8 9 10 12 14 16 9 5 3 5
3 2 2 2 2 1 2 2 1 2 3 3 3 2 1 2 2 3 4 4 4 4 4 3 3 5 6 6 7 9 11 9 9 8 9 9 9 9 10 10 13 12 4 8 5
4 3 3 3 1 1 2 3 2 1 2 2 2 3 4 2 3 3 4 5 5 6 5 5 6 7 9 9 9 10 12 12 10 8 8 9 11 8 8 7 9 9 4 2 6
6 4 5 4 3 3 5 5 4 3 2 1 1 2 3 3 3 4 4 6 6 6 7 8 8 9 10 11 12 11 12 11 10 6 4 9 9 9 10 9 7 7 7 3 1
8 6 7 6 6 6 7 7 6 5 4 3 4 4 6 5 5 6 6 8 8 9 9 10 10 11 9 10 12 13 11 12 7 7 7 7 15 10 9 8 8 5 5 7 8
10 9 8 8 8 8 8 10 9 7 6 6 6 7 8 8 8 9 10 11 12 13 13 12 11 10 9 10 11 10 9 9 7 6 7 8 12 13 11 6 5 9 9 10 12
12 11 9 10 10 9 10 12 12 11 9 8 8 9 9 9 10 12 14 14 15 15 15 14 12 10 11 10 11 13 10 9 9 9 6 9 9 9 10 11 8 11 10 10 18
14 13 12 11 11 9 10 12 13 15 15 13 13 11 10 11 12 14 17 18 17 16 15 13 11 12 13 14 14 13 9 8 10 11 14 11 12 11 11 11 11 11 12 13 12
16 15 14 13 12 11 10 12 15 16 17 17 17 15 14 14 16 18 18 18 17 15 13 12 12 13 14 16 15 10 8 9 10 11 11 12 12 13 12 11 11 15 14 14 15
19 17 17 16 14 13 12 13 14 16 19 19 19 20 18 18 19 17 17 16 14 12 12 12 13 13 13 12 11 11 11 12 11 12 13 13 12 12 13 13 12 13 12 13 12
22 21 20 19 17 16 15 14 14 15 15 17 16 18 19 18 17 16 16 14 13 13 13 13 11 8 10 12 12 15 14 14 13 11 7 11 7 18 14 15 16 15 15 17 17
24 24 23 21 19 19 17 16 15 15 17 16 15 15 14 13 14 15 13 13 12 11 10 10 10 11 12 13 12 16 16 16 14 13 12 15 12 14 14 16 17 18 18 17 18
25 26 24 22 22 20 18 18 16 15 16 14 15 15 16 16 14 14 13 11 11 12 12 13 12 11 13 12 15 17 17 18 18 16 15 17 16 9 15 18 18 19 19 19 20
26 26 25 23 21 21 20 19 19 17 17 15 15 15 15 15 15 14 14 13 12 14 16 14 14 14 15 16 17 18 18 12 14 11 13 23 21 14 20 20 20 19 19 20 22
27 27 27 26 25 24 23 23 24 21 20 18 18 19 18 15 16 16 17 16 14 15 17 17 20 18 17 18 22 22 23 23 22 17 16 30 25 24 22 21 20 16 19 20 23
28 27 27 27 26 25 24 25 25 23 21 19 19 20 19 18 19 20 21 23 21 19 19 20 24 23 22 22 22 29 25 27 29 31 30 22 26 25 22 23 19 20 21 23 25
29 26 26 25 25 24 24 25 24 22 21 20 21 20 21 21 23 24 24 25 25 23 22 22 24 24 25 25 26 26 30 28 28 27 24 16 32 18 25 25 24 25 26 28 29
31 30 29 28 28 27 27 27 27 25 25 24 25 24 25 24 24 25 27 26 24 23 23 23 22 30 23 27 27 30 29 26 27 30 31 29 19 32 27 28 28 27 30 32 33
34 33 31 31 31 30 30 29 29 28 28 27 26 26 25 24 24 26 27 29 26 27 27 27 27 26 29 29 29 28 28 28 29 28 32 33 30 30 29 30 28 26 29 30 34
35 36 34 33 32 31 31 30 30 30 29 28 28 27 26 27 26 27 29 30 31 31 30 30 29 28 29 31 29 28 27 26 27 30 30 32 30 32 36 38 37 32 32 32 33
37 37 36 34 34 33 31 31 31 31 31 30 29 29 29 29 29 31 31 30 31 31 30 30 30 28 26 29 32 32 31 31 32 33 33 35 32 34 34 38 37 35 34 33 34
39 38 36 36 34 33 33 32 32 33 33 33 34 33 32 33 32 31 30 30 30 31 31 30 29 30 29 30 32 33 31 31 34 36 37 34 36 34 38 38 37 36 36 35 36
40 40 39 39 37 36 36 36 36 35 34 36 36 36 36 36 35 36 32 33 33 33 32 30 30 32 31 34 36 35 34 34 35 34 36 36 37 41 37 39 38 38 37 35 35
43 42 42 40 40 39 40 38 38 38 38 38 37 38 39 39 36 36 35 36 36 35 35 33 33 34 34 35 38 38 36 35 34 34 35 35 36 38 39 40 39 38 36 35 34
Wind_Direction
122 49 26 27 39 48 62 70 73 74 81 85 83 81 80 79 75 69 71 76 69 68 71 64 60 68 61 61 59 51 46 43 49 91 77 11 356 339 328 4 24 58 72 43 50
150 2 24 36 49 66 71 80 80 74 75 88 84 79 82 79 79 77 71 76 72 63 64 58 44 56 49 42 43 38 25 21 24 36 49 28 358 328 327 338 354 53 84 52 58
204 331 17 36 47 71 75 90 88 80 80 80 88 79 79 81 74 70 71 75 73 58 55 55 33 28 35 21 11 11 9 359 0 1 8 12 357 346 335 335 337 30 60 102 88
231 309 355 21 56 74 84 85 80 73 67 83 75 76 63 60 52 47 47 44 49 43 32 46 19 5 358 356 352 3 354 345 343 340 340 347 341 356 329 339 344 356 49 129 128
251 273 315 323 48 83 119 136 93 56 50 47 51 55 66 13 15 17 9 8 356 345 357 343 334 336 341 346 342 347 346 344 328 319 318 330 321 325 317 330 336 353 38 142 112
252 275 299 300 308 244 194 209 225 304 347 16 48 63 66 47 357 346 340 343 339 329 331 327 312 325 328 330 331 337 334 332 328 312 306 311 305 311 317 315 330 6 9 183 127
255 271 285 278 270 245 231 227 237 259 299 341 343 2 358 0 346 333 334 340 339 328 319 313 312 317 318 317 320 325 328 326 324 320 293 284 298 310 321 319 331 5 358 305 144
253 270 276 275 274 250 232 233 240 255 261 269 287 294 300 312 315 318 309 312 306 308 313 302 302 307 312 313 315 321 325 327 324 307 309 302 304 341 326 332 352 354 325 265 259
252 266 261 274 276 259 240 235 233 242 253 261 271 281 286 304 313 313 310 308 305 305 303 303 302 305 307 314 318 322 317 311 308 304 303 307 305 325 326 338 335 326 305 273 260
253 258 259 274 274 259 249 241 237 237 245 254 264 274 284 300 312 313 312 307 304 302 302 302 302 304 305 316 317 312 309 307 304 303 308 314 311 314 313 310 305 300 286 265 249
256 253 261 272 272 268 255 248 248 249 246 254 265 274 284 294 302 309 310 306 303 297 295 297 295 297 302 302 300 299 292 290 296 309 318 326 325 326 320 306 295 274 275 261 268
254 251 261 269 269 266 262 256 256 260 254 255 262 271 282 290 296 302 305 309 305 297 293 289 287 292 299 303 305 295 278 279 292 303 304 309 311 308 300 283 259 261 267 264 248
255 253 262 270 268 266 263 257 258 259 260 263 264 268 277 283 291 295 304 312 306 296 291 285 291 297 302 313 311 295 291 286 287 302 304 312 312 308 304 295 287 296 299 292 274
256 256 259 268 268 271 267 262 262 262 271 274 274 272 274 279 286 293 305 305 301 297 292 292 300 307 311 311 311 294 298 292 290 294 276 308 273 307 302 300 300 298 295 288 282
258 257 259 265 267 268 267 265 265 267 273 277 281 279 276 277 280 292 295 297 300 299 301 302 302 302 304 307 303 295 298 291 288 291 291 298 291 279 291 290 288 288 282 279 280
257 259 261 263 266 266 265 267 267 264 267 275 276 278 276 276 280 285 287 292 296 297 295 295 294 294 298 298 297 301 294 288 289 294 289 275 292 294 272 291 289 283 280 279 273
258 261 262 261 263 265 266 264 263 262 268 268 270 271 270 277 278 283 286 287 286 290 291 292 287 286 288 289 288 290 286 296 288 284 288 287 302 296 297 292 289 285 275 275 271
258 260 261 265 265 264 263 264 265 265 263 262 262 263 265 267 271 275 276 277 274 275 277 281 284 280 282 277 281 281 286 290 290 289 281 296 307 297 298 293 289 279 274 265 256
260 261 262 262 263 261 260 260 262 263 262 259 255 255 258 261 266 269 271 273 272 266 265 273 271 276 277 277 277 284 281 289 290 295 298 300 293 304 296 294 288 282 281 275 272
256 254 255 255 255 255 255 258 258 257 256 252 252 252 257 259 264 266 269 271 272 272 270 271 272 273 276 279 278 277 286 291 295 299 295 293 300 300 307 299 293 290 290 285 279
254 253 252 253 252 252 253 255 256 257 256 256 256 257 259 261 263 266 270 273 274 276 276 276 274 280 282 279 280 287 285 286 290 291 291 294 292 293 301 294 294 291 289 287 284
252 254 252 252 252 251 253 254 255 256 257 257 257 259 261 264 264 268 272 273 276 277 277 277 278 276 281 287 285 283 285 294 294 291 295 299 302 293 294 295 290 284 283 283 281
251 251 250 250 250 250 251 253 254 256 257 258 259 260 260 263 266 268 271 274 276 277 277 278 278 282 287 289 282 287 295 294 293 290 292 293 301 292 305 304 306 305 303 297 289
250 250 251 250 249 250 251 252 254 256 256 257 260 261 263 265 267 270 270 271 274 276 277 280 281 283 281 277 287 295 299 299 296 293 295 296 298 297 295 298 303 304 301 293 285
248 248 248 248 249 250 251 252 253 254 258 259 259 261 264 267 269 269 268 269 269 272 276 279 283 285 289 288 290 292 295 295 294 297 296 299 299 299 301 304 305 305 303 297 291
245 246 247 248 249 252 252 253 255 255 257 259 263 267 268 267 268 272 269 267 270 272 277 283 288 287 290 293 293 295 299 298 298 298 299 300 301 301 304 305 306 304 301 296 293
242 244 246 247 249 251 252 254 256 257 257 260 262 265 267 269 271 271 270 270 271 274 278 282 285 287 290 291 292 296 296 300 299 298 298 297 293 299 303 304 304 304 301 296 294